Latest Weather Observations for Mount Boyce

IDN60901

Issued at 10:25 pm EST Thursday 2 October 2014 (issued every 10 minutes, with the page automatically refreshed every 10 minutes)

About weather observations | Map of Sydney area stations | Latest observations for Sydney area | Other Formats
Station Details ID: 063292 Name: MOUNT BOYCE AWS Lat: -33.62 Lon: 150.27 Height: 1080.0 m
Data from the previous 72 hours. | See also: Recent months at Mount Boyce
Date/Time
EST
Tmp

°C
App
Tmp
°C
Dew
Point
°C
Rel
Hum
%
Delta-T

°C
Wind Press
QNH
hPa
Press
MSL
hPa
Rain
since
9 am
mm
Dir
 
Spd
km/h
Gust
km/h
Spd
kts
Gust
kts
02/10:00pm 9.2 4.5 3.4 67 2.7 WSW 17 20 9 11 - - 0.0
02/09:30pm 9.5 5.6 3.5 66 2.8 W 13 19 7 10 - - 0.0
02/09:00pm 9.7 5.4 3.2 64 3.0 WSW 15 19 8 10 - - 0.0
02/08:30pm 10.2 5.5 3.0 61 3.3 WSW 17 20 9 11 - - 0.0
02/08:00pm 10.5 6.5 2.8 59 3.5 WSW 13 17 7 9 - - 0.0
02/07:30pm 11.2 6.8 2.8 56 3.9 WSW 15 22 8 12 - - 0.0
02/07:00pm 11.8 7.4 2.5 53 4.3 WSW 15 24 8 13 - - 0.0
02/06:30pm 12.4 7.2 2.3 50 4.7 WSW 19 28 10 15 - - 0.0
02/06:00pm 13.7 8.8 2.0 45 5.4 WSW 17 28 9 15 - - 0.0
02/05:30pm 15.3 9.1 2.1 41 6.2 WSW 24 39 13 21 - - 0.0
02/05:00pm 16.2 9.6 2.2 39 6.7 W 26 41 14 22 - - 0.0
02/04:30pm 17.0 10.5 2.6 38 6.9 W 26 41 14 22 - - 0.0
02/04:00pm 17.5 11.3 2.3 36 7.3 W 24 39 13 21 - - 0.0
02/03:30pm 17.4 11.0 1.0 33 7.7 W 24 37 13 20 - - 0.0
02/03:00pm 18.2 13.0 3.3 37 7.4 WSW 20 32 11 17 - - 0.0
02/02:30pm 17.7 13.2 4.3 41 6.7 WNW 17 24 9 13 - - 0.0
02/02:00pm 17.1 12.3 2.7 38 7.0 WSW 17 28 9 15 - - 0.0
02/11:00am 12.5 7.8 0.9 45 5.2 W 15 20 8 11 - - 0.0
02/10:30am 11.5 6.3 0.3 46 4.9 W 17 22 9 12 - - 0.0
02/10:00am 10.3 4.8 0.3 50 4.3 W 19 22 10 12 - - 0.0
02/09:30am 8.8 4.0 0.0 54 3.7 W 15 24 8 13 - - 0.0
02/09:00am 8.1 3.0 0.6 59 3.2 W 17 22 9 12 - - 0.0
02/08:30am 6.5 1.0 0.4 65 2.6 W 19 26 10 14 - - 0.0
02/08:00am 5.6 -0.2 0.0 67 2.3 W 20 28 11 15 - - 0.0
02/07:30am 4.4 -1.1 0.7 77 1.5 W 19 26 10 14 - - 0.0
02/07:00am 3.0 -1.3 0.9 86 0.9 WSW 13 15 7 8 - - 0.0
02/06:30am 2.6 -1.4 0.7 87 0.8 W 11 15 6 8 - - 0.0
02/06:00am 2.8 -1.2 0.7 86 0.9 W 11 15 6 8 - - 0.0
02/05:30am 3.0 -0.6 0.9 86 0.9 WNW 9 15 5 8 - - 0.0
02/05:00am 2.8 -1.1 1.2 89 0.7 NW 11 19 6 10 - - 0.0
02/04:30am 2.8 -0.8 0.9 87 0.8 WNW 9 11 5 6 - - 0.0
02/04:00am 3.8 0.7 1.5 85 1.0 NNW 7 15 4 8 - - 0.0
02/03:30am 3.4 0.3 1.4 87 0.8 NW 7 11 4 6 - - 0.0
02/03:00am 4.1 0.4 2.1 87 0.9 N 11 13 6 7 - - 0.0
02/02:30am 4.1 0.7 2.1 87 0.9 NNE 9 13 5 7 - - 0.0
02/02:00am 4.1 0.8 2.5 89 0.7 N 9 13 5 7 - - 0.0
02/01:30am 3.6 0.6 2.0 89 0.7 NE 7 9 4 5 - - 0.0
02/01:00am 3.4 0.3 1.3 86 0.9 NE 7 11 4 6 - - 0.0
02/12:30am 3.6 0.5 1.2 84 1.0 NE 7 11 4 6 - - 0.0
02/12:00am 3.7 0.6 1.3 84 1.0 NE 7 11 4 6 - - 0.0
 
Date/Time
EST
Tmp

°C
App
Tmp
°C
Dew
Point
°C
Rel
Hum
%
Delta-T

°C
Wind Press
QNH
hPa
Press
MSL
hPa
Rain
since
9 am
mm
Dir
 
Spd
km/h
Gust
km/h
Spd
kts
Gust
kts
01/11:30pm 3.5 0.0 1.2 85 1.0 ENE 9 11 5 6 - - 0.0
01/11:00pm 3.4 0.3 1.1 85 1.0 ENE 7 9 4 5 - - 0.0
01/10:30pm 3.5 0.3 0.9 83 1.1 ENE 7 9 4 5 - - 0.0
01/10:00pm 3.7 0.2 1.1 83 1.1 ENE 9 9 5 5 - - 0.0
01/09:30pm 4.0 0.9 1.2 82 1.2 ENE 7 9 4 5 - - 0.0
01/09:00pm 4.2 1.0 0.9 79 1.4 ENE 7 13 4 7 - - 0.0
01/08:30pm 4.6 1.0 0.6 75 1.7 ENE 9 13 5 7 - - 0.0
01/08:00pm 5.1 1.5 0.3 71 2.0 ENE 9 15 5 8 - - 0.0
01/07:30pm 5.7 2.0 -0.1 66 2.4 ENE 9 15 5 8 - - 0.0
01/07:00pm 6.5 2.8 -0.2 62 2.8 ENE 9 15 5 8 - - 0.0
01/06:30pm 7.5 3.3 -1.2 54 3.5 ENE 11 15 6 8 - - 0.0
01/06:00pm 10.2 5.2 -4.6 35 5.7 WSW 13 17 7 9 - - 0.0
01/05:30pm 11.5 5.7 -4.2 33 6.2 W 17 24 9 13 - - 0.0
01/05:00pm 12.3 6.9 -4.3 31 6.6 W 15 20 8 11 - - 0.0
01/04:30pm 13.7 8.1 -3.1 31 7.0 W 17 22 9 12 - - 0.0
01/04:00pm 13.6 7.4 -4.5 28 7.3 W 19 28 10 15 - - 0.0
01/03:30pm 14.4 8.7 -7.0 22 8.2 WSW 15 24 8 13 - - 0.0
01/03:00pm 14.2 8.2 -6.6 23 8.1 SW 17 24 9 13 - - 0.0
01/02:30pm 14.0 8.6 -7.9 21 8.2 W 13 20 7 11 - - 0.0
01/02:00pm 13.7 8.0 -7.6 22 8.0 W 15 26 8 14 - - 0.0
01/01:30pm 12.9 6.1 -9.5 20 8.0 W 20 24 11 13 - - 0.0
01/01:00pm 12.1 5.2 -10.8 19 7.9 WSW 20 33 11 18 - - 0.0
01/12:30pm 13.0 5.8 -9.4 20 8.0 WSW 22 32 12 17 - - 0.0
01/12:00pm 12.1 4.5 -9.5 21 7.7 WSW 24 35 13 19 - - 0.0
01/11:30am 11.7 4.1 -9.3 22 7.4 WSW 24 35 13 19 - - 0.0
01/11:06am 10.7 1.9 -10.1 22 7.1 WSW 30 48 16 26 - - 0.0
01/11:00am 10.5 1.2 -9.7 23 7.0 WSW 33 50 18 27 - - 0.0
01/10:31am 10.3 1.3 -7.9 27 6.5 WSW 32 50 17 27 - - 0.0
01/10:30am 10.2 1.0 -7.9 27 6.5 WSW 33 50 18 27 - - 0.0
01/10:00am 8.3 -1.0 -10.0 26 6.1 WSW 33 61 18 33 - - 0.0
01/09:37am 8.2 0.0 -8.3 30 5.7 WSW 28 50 15 27 - - 0.0
01/09:30am 8.4 1.8 -6.5 34 5.4 SW 20 28 11 15 - - 0.0
01/09:00am 7.0 -3.2 -6.7 37 4.9 WSW 39 61 21 33 - - 0.0
01/08:30am 5.7 -3.8 -3.6 51 3.5 WSW 37 63 20 34 - - 0.0
01/08:00am 5.1 -5.5 -3.4 54 3.2 WSW 43 61 23 33 - - 0.0
01/07:32am 4.7 -4.9 -1.5 64 2.4 WSW 39 67 21 36 - - 0.0
01/07:30am 4.6 -5.0 -1.6 64 2.4 WSW 39 56 21 30 - - 0.0
01/07:01am 4.3 -5.2 -1.1 68 2.1 WSW 39 61 21 33 - - 0.0
01/07:00am 4.3 -5.2 -0.9 69 2.1 WSW 39 54 21 29 - - 0.0
01/06:30am 4.3 -4.5 -1.3 67 2.2 WSW 35 54 19 29 - - 0.0
01/06:05am 4.6 -3.9 -1.6 64 2.4 WSW 33 52 18 28 - - 0.0
01/06:00am 4.6 -3.9 -1.6 64 2.4 WSW 33 48 18 26 - - 0.0
01/05:30am 5.1 -2.9 -2.2 59 2.8 WSW 30 48 16 26 - - 0.0
01/05:00am 6.3 -1.9 -4.2 47 3.9 WSW 30 48 16 26 - - 0.0
01/04:35am 7.0 -1.4 -2.4 51 3.7 W 32 52 17 28 - - 0.0
01/04:30am 7.2 -0.8 -2.0 52 3.7 W 30 44 16 24 - - 0.0
01/04:00am 7.6 -1.0 0.3 60 3.1 WSW 35 57 19 31 - - 0.0
01/03:30am 8.0 0.7 2.7 69 2.4 WSW 30 57 16 31 - - 0.0
01/03:00am 8.6 1.4 3.2 69 2.5 W 30 50 16 27 - - 0.0
01/02:30am 9.4 2.7 3.6 67 2.7 W 28 46 15 25 - - 0.0
01/02:00am 10.9 3.2 2.2 55 4.0 W 32 56 17 30 - - 0.0
01/01:30am 13.7 4.9 -1.1 36 6.4 W 35 54 19 29 - - 0.0
01/01:00am 15.1 6.6 -1.5 32 7.2 W 33 61 18 33 - - 0.0
01/12:30am 15.5 6.3 -1.5 31 7.4 W 37 67 20 36 - - 0.0
01/12:00am 16.0 6.4 -1.5 30 7.7 W 39 59 21 32 - - 0.0
 
Date/Time
EST
Tmp

°C
App
Tmp
°C
Dew
Point
°C
Rel
Hum
%
Delta-T

°C
Wind Press
QNH
hPa
Press
MSL
hPa
Rain
since
9 am
mm
Dir
 
Spd
km/h
Gust
km/h
Spd
kts
Gust
kts
30/11:30pm 16.5 7.3 -1.6 29 8.0 W 37 65 20 35 - - 0.0
30/11:00pm 16.6 8.2 -1.0 30 7.9 W 33 56 18 30 - - 0.0
30/10:30pm 16.7 8.8 0.8 34 7.4 W 32 52 17 28 - - 0.0
30/10:03pm 16.9 9.0 2.5 38 6.9 W 33 57 18 31 - - 0.0
30/10:00pm 16.9 9.0 2.5 38 6.9 W 33 48 18 26 - - 0.0
30/09:30pm 17.4 9.9 3.3 39 6.9 W 32 54 17 29 - - 0.0
30/09:00pm 18.0 9.8 2.7 36 7.4 W 35 57 19 31 - - 0.0
30/08:30pm 19.0 11.1 2.4 33 8.1 W 33 54 18 29 - - 0.0
30/08:00pm 19.3 11.0 2.2 32 8.3 W 35 61 19 33 - - 0.0
30/07:32pm 19.4 11.4 1.9 31 8.5 W 33 61 18 33 - - 0.0
30/07:30pm 19.4 11.4 1.9 31 8.5 W 33 46 18 25 - - 0.0
30/07:05pm 19.6 11.6 1.6 30 8.7 W 33 54 18 29 - - 0.0
30/07:00pm 19.5 11.7 1.9 31 8.5 W 32 46 17 25 - - 0.0
30/06:42pm 19.6 12.6 2.0 31 8.6 W 28 46 15 25 - - 0.0
30/06:30pm 19.6 12.2 2.0 31 8.6 W 30 46 16 25 - - 0.0
30/06:00pm 20.4 13.0 1.8 29 9.1 W 30 57 16 31 - - 0.0
30/05:30pm 21.2 13.1 1.0 26 9.7 WNW 33 65 18 35 - - 0.0
30/05:00pm 22.0 13.2 1.1 25 10.2 W 37 65 20 35 - - 0.0
30/04:30pm 22.5 14.1 1.5 25 10.3 W 35 57 19 31 - - 0.0
30/04:00pm 22.7 13.5 1.1 24 10.5 W 39 76 21 41 - - 0.0
30/03:58pm 22.9 13.3 1.3 24 10.6 W 41 76 22 41 - - 0.0
30/03:30pm 23.3 15.5 1.6 24 10.7 W 32 54 17 29 - - 0.0
30/03:00pm 23.2 15.5 2.1 25 10.5 WNW 32 56 17 30 - - 0.0
30/02:30pm 23.9 16.3 2.7 25 10.7 W 32 57 17 31 - - 0.0
30/02:00pm 23.8 16.1 3.2 26 10.5 W 33 65 18 35 - - 0.0
30/01:44pm 23.7 16.8 2.5 25 10.7 WNW 28 69 15 37 - - 0.0
30/01:30pm 23.8 17.1 3.7 27 10.4 W 28 44 15 24 - - 0.0
30/01:00pm 23.1 13.4 3.1 27 10.2 WNW 43 72 23 39 - - 0.0
30/12:30pm 23.1 13.6 2.0 25 10.5 W 41 67 22 36 - - 0.0
30/12:12pm 22.9 13.8 1.8 25 10.5 W 39 72 21 39 - - 0.0
30/12:00pm 22.9 15.4 1.3 24 10.6 W 30 54 16 29 - - 0.0
30/11:30am 22.5 13.8 2.1 26 10.1 W 37 59 20 32 - - 0.0
30/11:00am 22.6 14.9 3.2 28 9.8 WNW 33 69 18 37 - - 0.0
30/10:30am 21.6 14.7 2.8 29 9.4 WNW 28 61 15 33 - - 0.0
30/10:17am 21.4 14.5 2.6 29 9.4 WNW 28 46 15 25 - - 0.0
30/10:00am 20.9 14.9 3.6 32 8.7 WNW 24 46 13 25 - - 0.0
30/09:30am 20.2 13.2 4.3 35 8.1 WNW 30 54 16 29 - - 0.0
30/09:27am 19.8 13.1 3.5 34 8.2 WNW 28 54 15 29 - - 0.0
30/09:00am 19.2 13.4 4.2 37 7.6 WNW 24 43 13 23 - - 0.0
30/08:30am 18.2 12.7 4.0 39 7.1 WNW 22 37 12 20 - - 0.0
30/08:00am 17.4 11.9 4.0 41 6.7 WNW 22 37 12 20 - - 0.0
30/07:30am 16.5 11.5 3.6 42 6.3 WNW 19 35 10 19 - - 0.0
30/07:16am 16.5 9.8 3.6 42 6.3 WNW 28 46 15 25 - - 0.0
30/07:00am 16.5 10.5 3.2 41 6.5 WNW 24 44 13 24 - - 0.0
30/06:30am 16.0 10.8 3.4 43 6.1 WNW 20 35 11 19 - - 0.0
30/06:00am 15.2 11.2 3.0 44 5.9 WNW 13 24 7 13 - - 0.0
30/05:30am 15.7 11.3 2.8 42 6.2 WNW 15 30 8 16 - - 0.0
30/05:00am 16.0 11.2 2.4 40 6.5 WNW 17 28 9 15 - - 0.0
30/04:30am 16.3 11.4 2.3 39 6.7 NW 17 32 9 17 - - 0.0
30/04:00am 16.7 11.4 2.0 37 7.0 NW 19 33 10 18 - - 0.0
30/03:30am 16.6 11.3 1.9 37 7.0 NW 19 37 10 20 - - 0.0
30/03:00am 16.9 12.0 2.1 37 7.1 NW 17 32 9 17 - - 0.0
30/02:30am 17.0 11.8 2.2 37 7.1 NW 19 33 10 18 - - 0.0
30/02:00am 17.0 11.8 2.2 37 7.1 NW 19 39 10 21 - - 0.0
30/01:30am 16.8 11.5 2.0 37 7.0 NW 19 39 10 21 - - 0.0
30/01:00am 16.7 11.8 2.0 37 7.0 NW 17 30 9 16 - - 0.0
30/12:30am 16.6 11.7 2.2 38 6.9 NW 17 28 9 15 - - 0.0
30/12:00am 16.8 11.9 2.0 37 7.0 NW 17 30 9 16 - - 0.0
 
Date/Time
EST
Tmp

°C
App
Tmp
°C
Dew
Point
°C
Rel
Hum
%
Delta-T

°C
Wind Press
QNH
hPa
Press
MSL
hPa
Rain
since
9 am
mm
Dir
 
Spd
km/h
Gust
km/h
Spd
kts
Gust
kts
29/11:30pm 17.0 12.1 2.2 37 7.1 NW 17 28 9 15 - - 0.0
29/11:00pm 17.1 12.2 1.9 36 7.2 NW 17 28 9 15 - - 0.0
29/10:30pm 17.3 12.8 2.1 36 7.3 NW 15 26 8 14 - - 0.0

Latest Capital City Observations: Canberra | Sydney | Melbourne | Brisbane | Adelaide | Perth | Hobart | Darwin

Other Formats:

Comma delimited format used in spreadsheet applications
http://www.bom.gov.au/fwo/IDN60901/IDN60901.94743.axf

JavaScript Object Notation format (JSON) in row-major order
http://www.bom.gov.au/fwo/IDN60901/IDN60901.94743.json